Weather History for Gastonia, NC

Change the Weather History Date:

Saturday, December 21, 2013

  Actual Average (KCLT) Record (KCLT)
Temperature  
Mean Temperature 59 °F 41 °F  
Max Temperature 72 °F 52 °F 73 °F (2013)
Min Temperature 46 °F 31 °F 10 °F (1901)
Degree Days  
Heating Degree Days 6 24  
Month to date heating degree days 456  
Since 1 July heating degree days 1092  
Cooling Degree Days 0 0  
Month to date cooling degree days 0  
Year to date cooling degree days 1517  
Growing Degree Days 9 (Base 50)    
Moisture  
Dew Point 54 °F    
Average Humidity 84    
Maximum Humidity 100    
Minimum Humidity 64    
Precipitation  
Precipitation 0.00 in 0.10 in 2.19 in (1878)
Month to date precipitation 2.20  
Year to date precipitation 40.58  
Snow  
Snow 0.00 in 0.00 in 1.00 in (1973)
Month to date snowfall 0.1  
Since 1 July snowfall 0.2  
Snow Depth -    
Sea Level Pressure  
Sea Level Pressure 30.08 in    
Wind  
Wind Speed 2 mph (South)    
Max Wind Speed 12 mph    
Max Gust Speed 17 mph    
Visibility 9 miles    
Events      
T = Trace of Precipitation, MM = Missing Value Source: NWS Daily Summary

Daily Weather History Graph

Daily Weather History Graph

Search for Another Location

Airport:

Trip Planner

Search our weather history database for the weather conditions in past years. The results will help you decide how hot, cold, wet, or windy it might be!

Date:

Astronomy

Dec. 21, 2013 Rise Set
Actual Time 7:29 AM EST 5:16 PM EST
Civil Twilight 7:01 AM EST 5:44 PM EST
Nautical Twilight 6:29 AM EST 6:16 PM EST
Astronomical Twilight 5:58 AM EST 6:47 PM EST
Moon 9:23 PM EST (12/21) 10:02 AM EST (12/21)
Length of Visible Light 10h 43m
Length of Day
9h 47m
Waning Gibbous, 84% of the Moon is Illuminated
Dec 21
Waning Gibbous
Dec 25
Last Quarter
Jan 1
New
Jan 7
First Quarter
Jan 15
Full

Hourly Weather History & Observations

Time (EST) Temp. Dew Point Humidity Pressure Visibility Wind Dir Wind Speed Gust Speed Precip Events Conditions
12:54 AM 48.9 °F 46.9 °F 93% 30.14 in 8.0 mi Calm Calm - N/A   Clear
1:54 AM 46.9 °F 46.9 °F 100% 30.13 in 8.0 mi Calm Calm - N/A   Clear
2:54 AM 46.9 °F 46.9 °F 100% 30.13 in 2.0 mi Calm Calm - N/A   Clear
3:22 AM 48.2 °F 46.4 °F 93% 30.13 in 3.0 mi Calm Calm - N/A   Scattered Clouds
3:24 AM 46.4 °F 46.4 °F 100% 30.13 in 1.5 mi Calm Calm - N/A   Scattered Clouds
3:33 AM 48.2 °F 48.2 °F 100% 30.12 in 3.0 mi Calm Calm - N/A   Partly Cloudy
3:54 AM 48.0 °F 46.9 °F 96% 30.13 in 7.0 mi Calm Calm - N/A   Mostly Cloudy
4:54 AM 50.0 °F 48.0 °F 93% 30.12 in 9.0 mi Calm Calm - N/A   Overcast
5:54 AM 50.0 °F 48.0 °F 93% 30.12 in 10.0 mi SSW 4.6 mph - N/A   Mostly Cloudy
6:54 AM 52.0 °F 50.0 °F 93% 30.12 in 10.0 mi SSW 5.8 mph - N/A   Overcast
7:54 AM 51.1 °F 50.0 °F 96% 30.12 in 8.0 mi SSW 4.6 mph - N/A   Clear
8:54 AM 54.0 °F 52.0 °F 93% 30.13 in 10.0 mi Calm Calm - N/A   Scattered Clouds
9:40 AM 57.2 °F 53.6 °F 88% 30.13 in 10.0 mi Calm Calm - N/A   Mostly Cloudy
9:51 AM 57.2 °F 53.6 °F 88% 30.14 in 10.0 mi SSW 3.5 mph - N/A   Scattered Clouds
9:54 AM 57.0 °F 53.1 °F 87% 30.14 in 10.0 mi SSW 4.6 mph - N/A   Scattered Clouds
10:54 AM 60.1 °F 55.0 °F 83% 30.13 in 10.0 mi SSW 4.6 mph - N/A   Partly Cloudy
11:54 AM 63.0 °F 55.9 °F 78% 30.10 in 10.0 mi South 5.8 mph - N/A   Overcast
12:54 PM 66.0 °F 57.0 °F 73% 30.06 in 10.0 mi South 4.6 mph - N/A   Overcast
1:47 PM 71.6 °F 59.0 °F 64% 30.04 in 10.0 mi Calm Calm - N/A   Mostly Cloudy
1:54 PM 71.1 °F 59.0 °F 66% 30.04 in 10.0 mi Calm Calm - N/A   Mostly Cloudy
2:07 PM 71.6 °F 59.0 °F 64% 30.03 in 10.0 mi SW 9.2 mph 17.3 mph N/A   Mostly Cloudy
2:54 PM 72.0 °F 59.0 °F 64% 30.03 in 10.0 mi South 6.9 mph - N/A   Overcast
3:54 PM 72.0 °F 60.1 °F 66% 30.03 in 10.0 mi South 4.6 mph - N/A   Overcast
4:54 PM 70.0 °F 60.1 °F 71% 30.03 in 10.0 mi South 4.6 mph - N/A   Mostly Cloudy
5:54 PM 69.1 °F 60.1 °F 73% 30.04 in 10.0 mi Calm Calm - N/A   Overcast
6:54 PM 68.0 °F 60.1 °F 76% 30.03 in 10.0 mi SSE 3.5 mph - N/A   Overcast
7:54 PM 68.0 °F 60.1 °F 76% 30.03 in 10.0 mi South 5.8 mph - N/A   Scattered Clouds
8:54 PM 68.0 °F 61.0 °F 78% 30.02 in 10.0 mi South 8.1 mph - N/A   Clear
9:54 PM 68.0 °F 62.1 °F 81% 30.02 in 10.0 mi South 10.4 mph 17.3 mph N/A   Scattered Clouds
10:54 PM 66.9 °F 62.1 °F 84% 30.02 in 10.0 mi South 9.2 mph - N/A   Scattered Clouds
11:54 PM 66.9 °F 63.0 °F 87% 30.01 in 10.0 mi South 11.5 mph 17.3 mph N/A   Scattered Clouds